[[{"header":{"parameterUnit":"m.s-1","parameterCategory":1,"la1":30.2991,"la2":30.254,"lo1":-89.0895,"lo2":-89.0444,"dx":0.0017,"dy":0.0017,"nx":28,"ny":28,"refTime":"2023-01-27T09:00:00:Z","depth":0,"parameterNumber":2,"parameterNumberName":"U-component_of_WINDS"},"data":[0,0,0,0,0,0,0,0,0,0,0,0,0,0,0,0,0,0,0,0,0,0,0,0,0,0,0,0,0,0,0,0,0,0,0,0,0,0,0,0,0,0,0,0,0,0,0,0,0,0,0,0,0,0,0,0,0,0,-6.3631,-6.3632,0,-6.3713,-6.3714,-6.3715,-6.3655,-6.3652,-6.365,-6.3647,-6.3728,-6.3732,-6.3737,0,0,0,0,0,0,0,0,0,0,0,0,0,-6.3419,-6.3424,-6.3631,-6.3632,-6.3633,-6.3713,-6.3714,-6.3716,-6.3656,-6.3652,-6.3649,-6.3646,-6.3726,-6.3732,-6.3737,0,0,0,0,0,0,0,0,0,0,0,0,0,-6.3507,-6.3425,-6.3631,-6.3613,-6.3612,-6.3713,-6.3714,-6.3716,-6.3656,-6.3652,-6.3648,-6.3645,-6.3725,-6.3731,-6.3738,-6.386,0,0,-6.3759,-6.3762,0,0,0,0,0,0,0,0,-6.3502,-6.3515,-6.3615,-6.3614,-6.3614,-6.367,-6.3669,-6.3764,-6.3657,-6.3639,-6.3647,-6.3643,-6.3712,-6.3719,-6.3743,-6.3864,-6.3867,-6.376,-6.3764,-6.3767,-6.3769,0,0,0,0,0,0,0,-6.3496,-6.3511,-6.3663,-6.3616,-6.3616,-6.36,-6.3608,-6.3687,-6.3697,-6.3641,-6.3637,-6.3647,-6.3711,-6.3737,-6.3745,-6.3868,-6.376,-6.3766,-6.377,-6.3773,-6.4092,-6.4096,0,0,0,0,0,0,-6.3492,-6.3507,-6.3661,-6.3666,-6.3547,-6.3607,-6.3616,-6.3656,-6.3696,-6.3698,-6.3651,-6.3644,-6.3727,-6.3737,-6.3747,-6.3891,-6.3767,-6.3773,-6.3777,-6.4088,-6.4093,-6.4098,0,0,0,0,0,0,-6.3488,-6.3507,-6.3658,-6.3585,-6.3603,-6.3615,-6.366,-6.366,-6.3686,-6.3703,-6.3704,-6.3676,-6.3724,-6.3738,-6.3832,-6.3893,-6.3776,-6.3783,-6.4083,-6.4089,-6.4095,-6.418,0,0,0,0,0,0,-6.3482,-6.3506,-6.3552,-6.3587,-6.3607,-6.3742,-6.3664,-6.3664,-6.3698,-6.3691,-6.3727,-6.3729,-6.3722,-6.3822,-6.3839,-6.39,-6.3788,-6.4077,-6.4086,-6.4093,-6.4172,-6.4189,-6.4203,0,0,0,0,0,-6.3475,-6.3572,-6.3555,-6.3574,-6.3666,-6.3746,-6.3757,-6.3748,-6.3703,-6.375,-6.3761,-6.3728,-6.3885,-6.3833,-6.3851,-6.3915,-6.4073,-6.4083,-6.4093,-6.4165,-6.4185,-6.4203,0,0,0,0,0,0,-6.3542,-6.3576,-6.3557,-6.3669,-6.3705,-6.3735,-6.3793,-6.3771,-6.3819,-6.3809,-6.3796,-6.3804,-6.3904,-6.3919,-6.3861,-6.4035,-6.3972,-6.3986,-6.402,-6.404,-6.4055,-6.4047,-6.3794,0,0,0,0,0,-6.3571,-6.3633,-6.3659,-6.3755,-6.3775,-6.3782,-6.3816,-6.3806,-6.3842,-6.3857,-6.3875,-6.3911,-6.3968,-6.4005,-6.4059,-6.4176,-6.4181,-6.4229,-6.4245,-6.4257,-6.4268,-6.4329,-6.435,-6.413,-6.413,-6.413,0,0,-6.3628,-6.3655,-6.3695,-6.3769,-6.3796,-6.386,-6.3794,-6.3865,-6.3912,-6.3867,-6.3957,-6.3973,-6.4011,-6.4117,-6.4165,-6.4133,-6.4331,-6.427,-6.428,-6.4283,-6.4342,-6.4362,-6.4381,-6.4136,-6.4135,-6.4134,0,0,-6.3766,-6.3794,-6.3875,-6.3905,-6.3947,-6.3952,-6.3972,-6.4007,-6.4015,-6.4106,-6.4074,-6.413,-6.4229,-6.4257,-6.4285,-6.4437,-6.4407,-6.4456,-6.4535,-6.4595,-6.4613,-6.4628,-6.4679,-6.4698,-6.4467,-6.4467,-6.4468,0,-6.3831,-6.3928,-6.392,-6.3994,-6.4027,-6.3992,-6.4075,-6.4103,-6.416,-6.4183,-6.4149,-6.4273,-6.4297,-6.4408,-6.4445,-6.447,-6.4491,-6.4449,-6.4611,-6.4626,-6.464,-6.4689,-6.4709,-6.4473,-6.4472,-6.4472,-6.4471,0,-6.4005,-6.4073,-6.4134,-6.4192,-6.4233,-6.431,-6.4314,-6.4356,-6.4344,-6.4352,-6.4445,-6.4474,-6.4532,-6.4559,-6.4548,-6.4669,-6.4648,-6.4613,-6.4548,-6.4667,-6.4712,-6.4731,-6.448,-6.4478,-6.4477,-6.4475,0,0,-6.4182,-6.4238,-6.426,-6.4286,-6.4332,-6.4383,-6.446,-6.4519,-6.4554,-6.4596,-6.4658,-6.4745,-6.4712,-6.4744,-6.4736,-6.479,-6.4906,-6.4747,-6.4748,-6.4773,-6.5039,-6.5062,-6.5084,-6.4889,-6.4892,-6.4895,-6.5035,0,-6.432,-6.4453,-6.445,-6.4574,-6.4635,-6.4605,-6.4672,-6.4707,-6.4718,-6.4771,-6.4782,-6.4842,-6.4797,-6.4816,-6.4868,-6.4881,-6.4958,-6.4871,-6.4943,-6.4946,-6.493,-6.5108,-6.5133,-6.5263,-6.5053,-6.5056,-6.5058,0,-6.4496,-6.4545,-6.4676,-6.4713,-6.4739,-6.4798,-6.4852,-6.4905,-6.4944,-6.4948,-6.4985,-6.4969,-6.5046,-6.4983,-6.5088,-6.5029,-6.5059,-6.507,-6.5075,-6.5078,-6.5006,-6.5112,-6.5305,-6.5323,-6.5087,-6.5084,-6.5082,0,-6.4608,-6.4708,-6.4798,-6.4822,-6.4868,-6.4911,-6.4932,-6.4968,-6.5004,-6.5052,-6.5074,-6.513,-6.516,-6.5203,-6.5202,-6.5157,-6.5308,-6.5245,-6.5311,-6.5311,-6.5339,-6.5337,-6.5535,-6.5367,-6.5366,-6.5366,-6.5366,0,-6.4759,-6.4839,-6.4849,-6.4904,-6.4993,-6.499,-6.5077,-6.5095,-6.5127,-6.5184,-6.5164,-6.5217,-6.5216,-6.527,-6.5271,-6.5356,-6.5371,-6.5375,-6.5373,-6.5374,-6.5373,-6.539,-6.5379,-6.5371,-6.537,-6.5369,-6.5368,0,-6.4896,-6.4907,-6.5003,-6.5041,-6.5053,-6.5116,-6.5148,-6.52,-6.5211,-6.5283,-6.53,-6.5316,-6.538,-6.5385,-6.5459,-6.5459,-6.5561,-6.5552,-6.5548,-6.5545,-6.5609,-6.5601,-6.5821,-6.5849,-6.5666,-6.5668,-6.567,0,-6.4989,-6.505,-6.5096,-6.5133,-6.5158,-6.5219,-6.5256,-6.5256,-6.5295,-6.5346,-6.5392,-6.5454,-6.5503,-6.5606,-6.5623,-6.568,-6.5669,-6.5743,-6.5677,-6.5676,-6.5666,-6.566,-6.5665,-6.5753,-6.5756,-6.5757,-6.5759,0,-6.5152,-6.5155,-6.521,-6.5268,-6.5313,-6.5358,-6.54,-6.5432,-6.5438,-6.5483,-6.5549,-6.5587,-6.5664,-6.5725,-6.578,-6.5801,-6.578,-6.578,-6.5798,-6.5797,-6.579,-6.5791,-6.5578,-6.5774,-6.5772,-6.5771,-6.577,-6.577,-6.5268,-6.5321,-6.5361,-6.5423,-6.5456,-6.5496,-6.5547,-6.5565,-6.562,-6.5682,-6.568,-6.5752,-6.5791,-6.5864,-6.589,-6.5945,-6.592,-6.5946,-6.5952,-6.5957,-6.5962,-6.5786,-6.5956,-6.5956,-6.5955,-6.5955,-6.5955,0,-6.5427,-6.5452,-6.551,-6.557,-6.5619,-6.5599,-6.5645,-6.5687,-6.5751,-6.579,-6.584,-6.5915,-6.5975,-6.5999,-6.6058,-6.6097,-6.6089,-6.6112,-6.6107,-6.6112,-6.5983,-6.596,-6.6118,-6.6118,-6.6118,-6.6118,-6.6118,-6.6118,-6.5515,-6.5602,-6.561,-6.5714,-6.5739,-6.581,-6.5838,-6.5875,-6.5906,-6.5991,-6.6042,-6.6058,-6.6091,-6.6152,-6.6206,-6.6211,-6.6232,-6.6258,-6.6259,-6.6138,-6.6121,-6.6105,-6.6083,-6.6264,-6.6264,-6.6382,-6.6384,-6.6384]},{"header":{"parameterUnit":"m.s-1","parameterCategory":1,"la1":30.2991,"la2":30.254,"lo1":-89.0895,"lo2":-89.0444,"dx":0.0017,"dy":0.0017,"nx":28,"ny":28,"refTime":"2023-01-27T09:00:00:Z","depth":0,"parameterNumber":3,"parameterNumberName":"V-component_of_WINDS"},"data":[0,0,0,0,0,0,0,0,0,0,0,0,0,0,0,0,0,0,0,0,0,0,0,0,0,0,0,0,0,0,0,0,0,0,0,0,0,0,0,0,0,0,0,0,0,0,0,0,0,0,0,0,0,0,0,0,0,0,2.282,2.282,0,2.2866,2.2867,2.2867,2.2875,2.2874,2.2874,2.2873,2.2919,2.292,2.2922,0,0,0,0,0,0,0,0,0,0,0,0,0,2.2737,2.2739,2.282,2.282,2.2821,2.2866,2.2867,2.2868,2.2875,2.2874,2.2874,2.2873,2.2918,2.292,2.2922,0,0,0,0,0,0,0,0,0,0,0,0,0,2.2777,2.2739,2.282,2.283,2.2831,2.2866,2.2867,2.2868,2.2875,2.2874,2.2873,2.2873,2.2918,2.292,2.2922,2.2949,0,0,2.293,2.2931,0,0,0,0,0,0,0,0,2.2775,2.278,2.2828,2.2829,2.2831,2.2864,2.2855,2.2895,2.2875,2.2858,2.2873,2.2873,2.2901,2.2905,2.2915,2.2952,2.2954,2.293,2.2931,2.2932,2.2933,0,0,0,0,0,0,0,2.2772,2.2778,2.2838,2.2829,2.2831,2.2832,2.2837,2.2862,2.2882,2.286,2.286,2.2866,2.2902,2.2912,2.2916,2.2954,2.293,2.2932,2.2933,2.2934,2.3019,2.302,0,0,0,0,0,0,2.2768,2.2776,2.2837,2.284,2.2801,2.2834,2.284,2.2854,2.2882,2.2886,2.2866,2.2866,2.2909,2.2913,2.2917,2.2953,2.2932,2.2935,2.2936,2.3018,2.3019,2.302,0,0,0,0,0,0,2.2766,2.2773,2.2835,2.2808,2.2816,2.2837,2.2852,2.2855,2.2866,2.2887,2.2891,2.2874,2.2908,2.2914,2.2942,2.2955,2.2936,2.2938,2.3017,2.3018,2.3019,2.3023,0,0,0,0,0,0,2.2764,2.2772,2.2783,2.2808,2.2818,2.2859,2.2853,2.2857,2.287,2.287,2.2895,2.2898,2.2908,2.2939,2.2945,2.2958,2.294,2.3016,2.3018,2.3019,2.3022,2.3024,2.3026,0,0,0,0,0,2.2761,2.2781,2.2783,2.279,2.2831,2.2859,2.2865,2.2876,2.2871,2.2882,2.2896,2.2898,2.2952,2.2942,2.2948,2.2962,2.3015,2.3017,2.3019,2.3021,2.3024,2.3026,0,0,0,0,0,0,2.2754,2.2784,2.2787,2.2816,2.2836,2.2861,2.2874,2.2878,2.2899,2.2898,2.2911,2.2916,2.2944,2.2956,2.2943,2.2991,2.2983,2.2987,2.2983,2.2986,2.2988,2.2984,2.2942,0,0,0,0,0,2.2757,2.2778,2.2802,2.2826,2.2835,2.2853,2.2866,2.2874,2.2894,2.2902,2.2918,2.2937,2.2959,2.2973,2.2994,2.3024,2.303,2.3037,2.3039,2.3041,2.3043,2.3063,2.3067,2.3026,2.3026,2.3026,0,0,2.2761,2.278,2.2792,2.2825,2.2841,2.2863,2.286,2.2883,2.2899,2.2905,2.2933,2.2946,2.2968,2.2999,2.3012,2.3009,2.3056,2.3043,2.3044,2.3046,2.3065,2.3069,2.3072,2.3027,2.3027,2.3027,0,0,2.278,2.2796,2.2819,2.2835,2.286,2.2873,2.2878,2.2903,2.2913,2.2942,2.2947,2.2967,2.3004,2.302,2.3033,2.3063,2.3066,2.3069,2.3081,2.3099,2.3102,2.3105,2.3117,2.3121,2.3072,2.3072,2.3072,0,2.2782,2.2816,2.2829,2.2853,2.2868,2.2876,2.29,2.2915,2.2945,2.2955,2.2951,2.3,2.3015,2.305,2.3058,2.3068,2.3075,2.3066,2.3101,2.3104,2.3107,2.3119,2.3123,2.3072,2.3072,2.3072,2.3072,0,2.2818,2.2842,2.2857,2.2888,2.2905,2.2928,2.2945,2.2961,2.2968,2.2981,2.3011,2.3031,2.3057,2.3066,2.3071,2.3103,2.31,2.3098,2.3091,2.3111,2.3122,2.3127,2.3073,2.3073,2.3073,2.3073,0,0,2.2833,2.2874,2.2879,2.2894,2.2924,2.2942,2.2967,2.2994,2.3008,2.3029,2.305,2.3083,2.3082,2.3097,2.3106,2.3122,2.3146,2.3118,2.3119,2.3124,2.3184,2.3186,2.3191,2.3149,2.3149,2.315,2.3183,0,2.2857,2.2902,2.2916,2.2953,2.2976,2.2986,2.3007,2.3028,2.3041,2.3063,2.3078,2.3101,2.3098,2.3108,2.3124,2.314,2.3159,2.3138,2.3169,2.317,2.3164,2.3196,2.3197,2.3227,2.3187,2.3188,2.3188,0,2.289,2.2914,2.2954,2.2984,2.2994,2.3013,2.3041,2.3061,2.3085,2.3094,2.3113,2.312,2.3147,2.3139,2.3176,2.3162,2.3176,2.3186,2.3187,2.3191,2.3181,2.3202,2.3237,2.3241,2.3195,2.3194,2.3194,0,2.2899,2.2941,2.2971,2.2984,2.3018,2.3032,2.3047,2.3071,2.3087,2.3111,2.3123,2.3149,2.3163,2.3184,2.3199,2.3191,2.3236,2.3228,2.3245,2.3245,2.3254,2.3253,2.3292,2.3262,2.3262,2.3261,2.3261,0,2.2924,2.2949,2.2976,2.2995,2.3023,2.304,2.3068,2.3083,2.3105,2.3127,2.3136,2.3157,2.3175,2.3199,2.321,2.3241,2.3247,2.3256,2.3259,2.3255,2.3255,2.3265,2.3264,2.3263,2.3262,2.3262,2.3262,0,2.2939,2.2958,2.2992,2.3023,2.3031,2.3051,2.3078,2.3097,2.3112,2.314,2.3147,2.317,2.3199,2.3216,2.3251,2.3259,2.3294,2.3295,2.3286,2.3288,2.3304,2.3303,2.3352,2.336,2.3323,2.3323,2.3323,0,2.2954,2.2973,2.3007,2.3024,2.304,2.3065,2.3083,2.3101,2.3119,2.315,2.3165,2.3195,2.3219,2.3264,2.3284,2.3312,2.3315,2.333,2.3319,2.3316,2.3317,2.3316,2.3319,2.3332,2.3332,2.3332,2.3333,0,2.2979,2.2989,2.3014,2.3044,2.3065,2.3089,2.3113,2.3125,2.3148,2.3167,2.3198,2.3217,2.3254,2.3284,2.3314,2.3329,2.3335,2.3336,2.3342,2.3339,2.3333,2.3338,2.3292,2.3335,2.3335,2.3335,2.3334,2.3334,2.2995,2.3014,2.3042,2.3071,2.3091,2.3114,2.3135,2.3153,2.3179,2.3212,2.3221,2.3253,2.3279,2.3321,2.3337,2.3363,2.336,2.3368,2.337,2.3372,2.3373,2.3329,2.3368,2.3368,2.3368,2.3368,2.3368,0,2.3023,2.3042,2.3068,2.3103,2.3126,2.3131,2.3158,2.3177,2.3206,2.323,2.3255,2.3291,2.3321,2.3344,2.3374,2.3391,2.3394,2.3398,2.3397,2.3401,2.3373,2.3365,2.3395,2.3395,2.3395,2.3395,2.3395,2.3395,2.3039,2.3073,2.3086,2.313,2.3149,2.3181,2.3197,2.3219,2.3239,2.3279,2.3304,2.332,2.3345,2.3377,2.3405,2.3411,2.3423,2.3426,2.3433,2.3406,2.3403,2.34,2.3393,2.3428,2.3428,2.346,2.346,2.346]}]]